Location: *
(60.1759°S, 155.0663°W)
Time: 10:41:27
(UTC+00:00)

Cosmos 2333 Rocket - Pass Details

Date: 17 September 2019
Orbit: 840 x 862 km, 70.8° (Epoch: 18 October)

Event Time Altitude Azimuth Distance (km) Brightness Sun altitude
Exits shadow 13:37:30 - 238° (WSW) 2,975 4.8 -20.4°
Reaches altitude 10° 13:38:51 10° 232° (SW) 2,534 4.5 -20.3°
Maximum altitude 13:43:57 30° 171° (S) 1,517 3.9 -19.7°
Drops below altitude 10° 13:49:02 10° 110° (ESE) 2,517 5.8 -19.2°
Sets 13:51:48 0° 99° (E) 3,448 6.6 -18.9°
